Temperature
-3 -2 -2 -2 -2 -2 -1 -0 0 1 2 3 4 5 7 8 9 10 10 11 12 12 13 13 14 14 14 15 15 15 15 15 16 16 16 16 16 16 16 16 16 16 16
-4 -4 -4 -4 -4 -3 -3 -3 -2 -2 0 1 3 4 5 6 8 9 10 10 11 12 12 13 13 14 14 14 15 15 15 15 15 15 16 16 16 16 16 16 16 16 16
-5 -5 -5 -5 -5 -5 -5 -4 -4 -3 -2 -1 1 3 4 5 6 8 9 10 10 11 12 12 13 13 13 14 14 14 15 15 15 15 15 16 16 16 16 16 16 16 16
-5 -5 -6 -6 -6 -6 -6 -6 -6 -5 -4 -3 -1 1 2 4 5 6 7 9 10 10 11 11 12 12 13 13 13 14 14 15 15 14 15 15 16 16 16 16 16 16 16
-5 -6 -7 -7 -7 -7 -6 -7 -7 -7 -6 -6 -4 -2 0 2 4 5 6 7 8 9 10 10 11 11 12 12 13 13 14 14 14 14 14 14 15 15 16 16 16 16 16
-6 -7 -7 -8 -8 -7 -7 -7 -7 -7 -7 -7 -6 -4 -2 1 2 3 4 5 7 8 9 10 10 11 11 12 12 13 13 14 14 14 14 14 14 15 15 16 16 16 16
-7 -7 -8 -8 -8 -8 -8 -8 -8 -8 -8 -7 -7 -6 -3 -1 1 1 2 3 4 6 8 9 9 10 11 11 11 12 12 13 13 14 14 14 14 14 15 15 15 16 16
-8 -9 -9 -9 -9 -9 -9 -9 -9 -9 -9 -8 -8 -7 -6 -4 -1 1 2 2 2 4 6 7 8 9 9 10 11 11 12 12 13 13 14 14 14 14 14 15 15 15 16
-9 -9 -10 -10 -10 -10 -10 -10 -10 -10 -10 -9 -8 -8 -7 -5 -6 -3 -1 0 2 2 3 5 7 8 9 9 10 11 11 12 12 12 13 14 14 14 14 14 15 15 15
-9 -10 -10 -11 -11 -11 -11 -11 -11 -11 -10 -10 -9 -8 -8 -7 -6 -5 -4 -2 -1 1 2 3 6 7 8 9 9 10 11 11 12 12 13 13 14 14 14 14 14 15 15
-10 -10 -11 -11 -11 -11 -11 -11 -11 -11 -11 -10 -10 -9 -8 -7 -7 -6 -6 -5 -2 -0 1 2 4 6 8 9 9 10 10 11 11 12 12 13 14 14 14 14 14 14 15
-11 -11 -12 -12 -12 -12 -12 -11 -11 -11 -10 -10 -10 -9 -9 -8 -7 -7 -6 -6 -6 -2 -0 2 3 5 7 8 9 10 10 11 11 11 12 12 13 14 14 14 14 14 14
-12 -12 -13 -13 -13 -12 -12 -12 -12 -11 -10 -10 -10 -9 -9 -8 -8 -7 -7 -7 -6 -5 -3 1 2 4 6 7 8 9 10 10 11 11 11 12 12 13 13 13 14 14 14
-13 -13 -13 -13 -13 -13 -12 -12 -12 -11 -11 -10 -10 -9 -9 -8 -8 -7 -7 -7 -6 -6 -5 -3 0 3 4 6 7 9 10 10 10 11 11 11 12 12 13 13 13 14 14
-13 -13 -13 -13 -13 -13 -13 -13 -12 -11 -10 -10 -9 -9 -8 -8 -8 -7 -7 -7 -6 -6 -5 -4 -2 0 2 4 6 8 9 10 10 10 11 11 11 12 12 13 13 13 14
-13 -14 -14 -14 -13 -13 -13 -13 -12 -11 -10 -10 -9 -9 -8 -8 -8 -7 -7 -7 -6 -6 -5 -4 -4 -2 0 3 5 6 8 9 9 10 10 11 11 12 12 12 13 13 13
-14 -14 -14 -14 -13 -13 -13 -12 -12 -11 -10 -9 -9 -9 -8 -8 -8 -7 -7 -6 -6 -5 -5 -4 -4 -3 -1 2 4 5 6 8 9 9 10 10 11 11 12 12 12 12 13
-14 -14 -14 -13 -13 -13 -13 -12 -11 -10 -10 -9 -9 -9 -8 -8 -8 -7 -7 -6 -6 -5 -5 -4 -3 -3 -1 0 2 3 5 6 8 8 9 10 11 11 11 12 12 12 12
-13 -13 -13 -13 -13 -13 -12 -11 -10 -10 -10 -9 -9 -9 -8 -8 -8 -8 -7 -6 -5 -5 -4 -3 -3 -2 -1 -0 1 2 3 5 7 8 9 9 10 11 11 12 12 12 12
-13 -13 -13 -13 -12 -12 -11 -10 -10 -10 -9 -9 -9 -9 -9 -9 -9 -8 -8 -7 -6 -4 -4 -3 -2 -2 -1 -0 0 1 2 4 6 7 8 9 10 11 11 12 12 12 12
-13 -13 -13 -12 -12 -11 -10 -10 -10 -10 -10 -9 -9 -9 -9 -9 -9 -9 -8 -8 -7 -5 -4 -3 -2 -1 -1 -0 0 1 2 3 5 6 8 9 10 10 11 11 12 12 12
-13 -13 -12 -12 -11 -10 -10 -10 -10 -10 -10 -10 -10 -9 -9 -9 -10 -9 -9 -8 -8 -7 -6 -4 -3 -2 -1 -1 0 1 1 2 4 6 7 8 9 10 10 11 12 12 12
-13 -13 -13 -12 -11 -11 -10 -11 -11 -10 -10 -10 -10 -10 -10 -10 -10 -10 -9 -9 -8 -8 -7 -6 -5 -4 -3 -2 -1 1 1 2 3 5 7 7 8 8 9 10 11 11 12
-13 -13 -13 -12 -12 -11 -11 -11 -11 -11 -11 -11 -11 -11 -11 -10 -10 -10 -10 -9 -9 -8 -8 -7 -6 -5 -4 -3 -2 -0 1 2 3 5 6 6 7 7 8 8 9 10 10
-13 -13 -13 -12 -12 -12 -11 -11 -12 -12 -12 -11 -11 -12 -11 -11 -11 -11 -10 -10 -9 -8 -8 -8 -7 -6 -5 -4 -2 -1 1 2 3 4 5 6 6 7 7 7 8 8 9
-13 -13 -13 -13 -12 -13 -12 -12 -12 -13 -12 -12 -12 -12 -12 -12 -12 -11 -11 -11 -11 -9 -8 -7 -7 -6 -5 -3 -3 -1 -0 1 3 4 5 5 6 6 6 6 6 7 8
Wind_Speed
19 21 20 20 20 21 21 19 20 20 19 20 20 20 19 20 20 19 17 24 25 24 23 22 24 27 28 27 27 27 28 27 26 25 24 24 24 24 24 24 24 23 23
20 20 19 18 19 22 21 20 20 16 15 16 16 19 19 19 18 20 20 21 23 24 23 21 22 26 26 25 25 25 26 29 29 27 26 25 25 24 24 24 25 24 24
22 21 17 15 19 22 21 20 18 15 13 13 15 16 16 17 18 20 21 18 18 20 22 21 20 24 26 25 24 23 24 26 29 30 28 27 26 26 25 25 25 25 25
23 21 15 14 20 20 18 14 10 13 12 12 13 14 13 15 18 19 18 18 16 15 17 21 21 23 26 25 24 23 22 23 26 30 31 29 28 27 26 25 25 25 25
24 21 15 16 20 17 14 13 12 13 14 14 14 14 13 15 16 15 15 16 15 15 13 16 19 20 24 26 24 24 23 22 23 27 31 32 30 29 28 26 25 25 25
23 21 16 18 18 12 10 10 13 12 12 14 16 16 15 15 13 11 12 11 12 13 12 12 12 14 18 24 25 24 24 24 23 24 29 33 33 30 29 28 26 26 26
23 20 17 16 16 9 11 12 13 13 12 12 13 15 13 11 11 7 8 10 10 12 13 11 9 9 11 18 24 24 23 23 24 23 25 31 34 33 30 28 27 27 26
21 19 18 15 14 9 10 11 12 10 11 11 11 12 8 7 6 10 7 8 9 12 13 12 11 9 9 9 13 22 23 23 23 24 24 28 33 35 32 29 28 28 27
20 19 20 17 15 10 10 11 10 11 12 12 8 7 7 6 13 7 6 6 10 12 11 11 12 13 12 9 11 16 22 23 23 24 24 26 31 35 35 31 29 28 28
19 19 21 18 15 12 10 11 11 11 11 12 10 7 8 10 8 8 7 6 9 12 12 12 13 12 13 11 11 14 18 23 24 24 24 26 30 34 35 34 31 29 28
17 19 20 17 15 12 10 10 11 11 10 11 11 11 10 10 10 9 14 14 13 9 10 13 12 11 11 11 10 12 17 22 24 24 23 25 29 32 34 34 32 29 28
12 18 20 17 17 14 11 11 10 12 11 12 12 11 10 9 9 8 12 16 17 14 13 11 11 10 8 9 13 18 17 20 22 22 22 22 25 29 33 34 33 31 29
10 11 18 15 14 15 16 15 11 12 12 13 12 11 11 11 10 11 12 14 17 15 10 9 7 7 9 9 11 19 16 18 20 21 21 21 22 25 29 32 34 33 32
11 15 18 18 17 18 18 14 11 12 12 13 14 14 12 11 10 10 11 12 15 14 10 8 9 9 7 6 10 19 14 15 16 18 17 19 20 21 24 27 32 34 33
16 19 20 17 17 17 15 12 11 13 13 13 13 14 12 10 10 10 10 11 12 16 15 9 5 5 6 8 13 15 14 16 12 14 14 15 18 19 21 23 25 29 32
17 17 15 15 14 14 14 12 12 13 14 14 12 14 13 10 10 10 10 11 12 14 15 9 7 10 13 14 17 15 16 22 13 12 14 13 14 15 17 19 21 23 27
16 14 14 15 16 15 13 13 14 15 15 14 14 14 13 12 10 10 10 11 12 13 16 15 11 11 12 13 13 11 14 12 9 9 12 13 13 13 14 15 16 19 22
16 16 15 16 17 16 15 15 16 15 14 15 14 12 11 10 11 10 10 11 11 12 14 17 12 9 11 10 10 11 12 10 7 8 10 12 13 14 14 14 15 16 18
14 16 15 16 17 17 17 16 14 14 13 12 10 9 10 11 11 10 11 10 9 10 10 12 11 8 7 7 8 10 12 10 8 6 7 10 13 13 14 14 15 16 17
14 15 17 18 19 19 17 14 11 8 7 6 8 9 10 11 13 13 10 11 11 8 7 8 9 7 6 6 5 7 7 7 6 3 4 5 10 13 14 15 16 16 17
15 15 17 19 20 18 11 9 8 9 9 9 10 11 11 16 22 18 13 13 13 10 7 6 5 5 4 3 3 3 6 6 5 3 3 3 5 5 7 11 15 17 18
14 15 16 18 21 18 23 25 19 13 12 12 12 12 12 13 20 24 25 23 21 16 13 9 6 5 4 3 2 2 4 5 4 3 4 3 3 4 5 5 12 18 19
12 13 15 17 19 22 29 27 26 15 13 13 13 13 14 16 16 12 19 22 21 24 22 13 10 9 7 7 6 3 3 4 4 2 3 3 3 3 3 5 15 19 21
11 11 12 15 16 22 28 25 23 14 12 13 13 14 13 15 17 17 14 14 14 15 18 13 11 11 11 9 6 5 3 4 5 3 1 3 3 3 4 5 16 22 27
8 10 11 13 15 18 27 24 20 10 11 12 14 16 17 14 26 26 18 16 15 15 19 23 21 19 20 19 14 4 2 3 3 1 2 3 4 5 5 6 13 29 34
9 11 11 11 13 14 24 25 19 10 11 11 12 14 21 23 26 27 17 16 17 15 16 16 17 18 15 15 18 9 5 2 1 2 1 2 5 5 5 6 10 15 25
Wind_Direction
0 354 347 344 345 344 340 337 334 334 335 332 330 329 324 320 314 313 311 311 311 311 305 279 249 236 228 219 211 207 204 203 202 201 198 194 191 190 191 191 188 185 185
358 353 345 344 346 342 336 334 327 330 329 328 325 324 319 315 313 312 308 306 307 309 310 295 258 238 230 224 218 212 209 207 205 202 200 197 193 191 191 192 191 189 187
355 350 342 345 346 342 338 334 327 328 326 325 322 320 317 315 312 309 305 301 300 304 306 307 279 247 235 228 224 218 215 215 211 205 200 198 194 192 190 191 191 190 189
353 347 339 344 344 342 340 334 334 331 325 322 320 316 314 312 307 303 301 297 296 295 298 301 297 264 243 234 228 223 218 218 218 211 203 199 195 193 191 190 190 190 190
350 344 338 343 344 341 337 336 336 330 325 323 319 315 313 306 299 298 299 299 296 291 286 290 295 284 257 243 234 229 223 221 222 218 209 203 197 194 192 190 189 189 190
347 343 344 343 343 339 335 333 332 328 325 322 320 315 306 296 290 291 301 308 306 307 301 290 291 291 272 250 239 232 227 224 222 222 214 206 200 195 193 191 189 189 189
346 343 347 341 341 336 330 330 331 328 329 327 322 319 303 283 283 311 320 319 327 339 329 317 303 293 283 261 243 235 230 227 224 223 219 210 203 197 194 191 191 190 190
342 345 342 336 335 332 326 329 327 329 327 329 322 321 317 311 332 315 307 314 337 339 331 335 331 325 299 275 253 238 232 230 228 225 221 215 206 199 196 193 192 192 191
336 338 335 331 331 330 326 326 324 328 324 321 315 313 315 317 324 302 306 324 337 328 327 329 334 334 328 306 269 248 233 230 231 229 223 218 211 202 196 193 194 195 192
330 334 332 329 329 327 323 323 329 318 317 317 314 293 295 302 302 310 311 316 318 321 320 324 322 318 319 322 301 268 245 230 229 231 228 220 214 207 198 194 194 195 193
328 330 328 328 326 324 319 316 317 315 313 309 308 306 302 297 281 289 302 311 315 308 313 312 307 303 306 305 310 292 261 240 230 228 229 224 217 211 204 197 194 194 193
325 325 326 327 323 321 318 315 313 311 308 304 303 302 301 297 296 296 295 304 306 307 308 301 296 291 292 302 311 310 284 249 232 224 223 222 219 215 208 200 194 194 194
326 319 323 322 320 319 317 315 312 309 306 303 302 300 296 290 290 291 292 297 298 302 301 294 289 298 301 301 310 319 296 256 233 221 216 215 216 216 212 204 197 194 196
321 318 320 316 315 316 317 312 308 306 305 303 299 297 293 287 283 283 285 292 296 297 293 284 299 283 283 302 320 333 321 273 231 217 211 209 209 210 211 210 203 198 195
323 322 318 314 312 312 311 308 305 305 303 299 298 297 292 287 286 283 279 276 280 288 293 290 287 302 334 326 326 329 325 311 251 207 199 201 204 205 206 209 207 201 195
319 317 317 315 312 311 308 305 305 304 302 298 298 297 294 289 287 284 279 273 266 268 275 278 286 305 309 305 310 315 314 312 279 210 188 186 190 194 198 202 204 202 198
317 317 318 316 314 311 308 306 304 302 300 300 301 298 297 296 295 291 286 277 269 261 266 275 275 279 281 289 297 302 305 304 286 226 192 186 187 188 188 190 195 197 195
318 319 318 316 314 313 309 305 303 301 299 299 301 304 309 313 310 305 299 286 274 265 265 271 272 267 266 272 281 290 294 295 281 244 205 190 189 190 190 189 192 195 193
320 321 322 319 318 314 311 305 299 296 296 301 312 324 330 336 334 327 320 318 300 277 264 266 267 257 256 258 268 276 282 288 277 249 213 196 191 191 192 192 193 194 195
325 326 327 327 324 318 312 308 304 305 322 342 350 349 351 1 354 346 344 344 334 314 283 272 266 257 250 245 239 255 273 274 267 248 203 185 188 191 193 194 195 195 195
338 334 335 335 334 333 344 6 23 29 22 13 5 357 358 13 11 7 8 5 359 358 348 325 298 272 259 260 230 218 252 269 265 227 188 181 174 178 187 196 195 193 192
340 341 342 342 345 355 27 43 45 30 22 14 7 0 360 8 17 11 12 15 14 14 13 5 353 342 333 320 306 244 236 255 248 216 171 163 158 170 175 180 187 187 185
341 343 344 348 350 359 27 38 38 30 20 14 8 5 7 5 21 13 8 13 13 14 19 15 4 356 348 348 329 281 231 243 254 243 151 145 132 143 135 159 170 170 166
341 341 343 350 353 0 20 34 32 21 16 11 5 4 9 2 14 21 8 9 12 10 10 12 6 357 355 354 329 294 280 266 265 275 150 133 123 112 102 125 149 147 142
339 342 348 351 354 354 11 30 34 12 13 7 6 6 11 10 13 20 13 8 10 7 5 8 10 8 6 5 5 340 297 225 217 205 30 119 121 99 85 98 123 129 129
345 350 351 351 351 351 8 25 39 25 15 9 7 5 9 15 14 19 18 10 12 4 358 359 2 2 1 360 7 7 342 288 214 157 17 116 132 117 86 71 104 117 120
Height
1525 1520 1515 1511 1506 1502 1497 1492 1488 1484 1481 1478 1475 1473 1471 1469 1469 1469 1469 1470 1470 1471 1473 1475 1478 1481 1484 1488 1492 1496 1500 1505 1509 1513 1516 1519 1523 1526 1530 1534 1538 1541 1545
1523 1518 1513 1508 1503 1499 1494 1489 1485 1480 1476 1472 1469 1467 1464 1462 1461 1460 1461 1462 1463 1465 1466 1468 1471 1474 1478 1481 1485 1489 1493 1498 1503 1507 1511 1514 1518 1522 1525 1530 1534 1537 1541
1521 1516 1511 1506 1501 1496 1491 1486 1481 1476 1471 1467 1463 1460 1458 1455 1454 1453 1453 1454 1455 1457 1459 1461 1464 1467 1471 1474 1478 1482 1486 1490 1495 1501 1505 1509 1513 1517 1521 1525 1529 1533 1537
1519 1514 1509 1503 1498 1493 1488 1482 1478 1473 1468 1463 1457 1454 1451 1449 1447 1446 1445 1446 1448 1449 1451 1454 1457 1460 1464 1468 1471 1475 1479 1483 1488 1493 1498 1503 1507 1511 1515 1520 1524 1528 1533
1516 1511 1506 1500 1495 1490 1485 1480 1475 1471 1465 1459 1454 1448 1445 1442 1441 1440 1439 1439 1439 1441 1444 1446 1450 1453 1457 1461 1465 1469 1472 1477 1481 1485 1490 1495 1500 1505 1510 1515 1519 1523 1528
1512 1507 1502 1497 1492 1487 1482 1477 1472 1467 1463 1458 1451 1444 1439 1436 1435 1434 1433 1432 1433 1434 1436 1439 1442 1445 1449 1454 1458 1462 1466 1470 1475 1479 1483 1487 1493 1499 1504 1509 1514 1519 1523
1509 1504 1498 1493 1488 1483 1479 1474 1469 1464 1459 1455 1449 1440 1433 1431 1429 1427 1427 1427 1427 1427 1428 1431 1435 1438 1441 1446 1451 1456 1460 1464 1468 1473 1477 1482 1486 1491 1498 1503 1509 1514 1519
1505 1500 1495 1489 1484 1479 1474 1470 1466 1461 1456 1454 1450 1442 1433 1426 1423 1421 1421 1421 1421 1421 1422 1425 1428 1431 1435 1438 1444 1449 1453 1457 1461 1466 1471 1476 1481 1485 1491 1497 1503 1509 1514
1502 1497 1491 1485 1480 1475 1470 1466 1462 1458 1453 1450 1449 1447 1440 1432 1423 1414 1415 1415 1415 1415 1416 1418 1422 1425 1428 1431 1436 1441 1446 1451 1455 1459 1464 1469 1474 1479 1485 1490 1497 1503 1509
1499 1493 1487 1481 1476 1471 1466 1462 1458 1455 1450 1446 1444 1443 1441 1436 1431 1418 1409 1409 1410 1410 1410 1411 1414 1419 1422 1425 1428 1433 1438 1444 1448 1452 1457 1462 1468 1473 1479 1484 1490 1497 1503
1494 1489 1483 1477 1472 1467 1462 1457 1453 1450 1446 1443 1440 1437 1435 1433 1429 1425 1413 1404 1403 1404 1405 1406 1407 1411 1416 1419 1422 1426 1430 1436 1442 1446 1451 1456 1461 1467 1473 1479 1485 1491 1497
1489 1484 1478 1473 1467 1462 1457 1452 1448 1444 1441 1438 1435 1433 1431 1428 1425 1422 1416 1408 1401 1398 1399 1400 1401 1405 1409 1413 1416 1419 1424 1429 1435 1440 1444 1449 1455 1461 1467 1473 1479 1484 1491
1483 1478 1473 1468 1463 1457 1452 1447 1443 1439 1436 1433 1430 1427 1425 1423 1421 1419 1415 1408 1401 1395 1394 1393 1396 1398 1402 1407 1410 1413 1418 1423 1428 1433 1438 1443 1448 1455 1461 1467 1473 1479 1486
1480 1474 1469 1464 1458 1453 1448 1442 1438 1434 1431 1428 1425 1422 1419 1417 1416 1414 1412 1408 1401 1393 1391 1389 1390 1393 1397 1400 1403 1406 1411 1416 1422 1427 1432 1437 1442 1448 1454 1461 1467 1474 1480
1477 1471 1465 1459 1454 1448 1443 1438 1433 1429 1426 1423 1420 1417 1414 1412 1410 1408 1406 1404 1402 1395 1387 1385 1387 1389 1391 1394 1397 1400 1404 1409 1415 1420 1425 1430 1435 1441 1447 1454 1460 1468 1475
1474 1467 1461 1455 1449 1443 1438 1433 1428 1425 1421 1418 1416 1413 1410 1407 1405 1402 1400 1398 1397 1394 1388 1381 1384 1384 1386 1388 1391 1394 1398 1403 1408 1414 1419 1424 1429 1434 1441 1447 1454 1461 1468
1472 1465 1458 1451 1444 1438 1433 1428 1424 1420 1417 1414 1412 1409 1406 1404 1400 1397 1394 1392 1390 1388 1383 1379 1381 1381 1381 1382 1386 1389 1392 1397 1402 1408 1413 1418 1423 1428 1434 1441 1447 1454 1462
1471 1463 1456 1448 1440 1434 1428 1423 1419 1416 1414 1411 1409 1407 1404 1400 1397 1393 1389 1385 1383 1381 1379 1376 1377 1378 1378 1379 1380 1383 1387 1391 1397 1403 1407 1412 1417 1423 1428 1435 1442 1449 1456
1469 1462 1454 1445 1437 1429 1423 1418 1415 1413 1411 1410 1408 1405 1402 1398 1394 1389 1384 1380 1376 1374 1373 1372 1372 1375 1376 1376 1377 1379 1382 1386 1391 1397 1402 1407 1412 1417 1423 1429 1436 1443 1450
1469 1461 1453 1444 1434 1425 1419 1415 1413 1412 1412 1410 1408 1405 1402 1398 1393 1387 1382 1376 1371 1368 1367 1368 1368 1370 1372 1372 1373 1375 1378 1383 1387 1393 1398 1403 1408 1413 1418 1424 1430 1437 1444
1470 1462 1454 1444 1434 1424 1419 1417 1416 1416 1414 1412 1409 1406 1402 1399 1393 1387 1381 1375 1369 1366 1364 1364 1365 1366 1368 1369 1370 1372 1376 1380 1383 1388 1394 1399 1403 1407 1412 1418 1424 1431 1438
1471 1464 1456 1448 1439 1431 1427 1424 1422 1420 1417 1415 1411 1407 1403 1399 1393 1386 1380 1374 1370 1366 1364 1362 1363 1364 1366 1367 1368 1371 1374 1377 1381 1385 1389 1394 1399 1403 1408 1413 1419 1426 1433
1472 1466 1460 1453 1445 1439 1435 1431 1428 1424 1421 1418 1414 1410 1405 1401 1394 1387 1380 1375 1370 1367 1365 1363 1363 1363 1364 1365 1366 1368 1371 1374 1377 1381 1386 1390 1395 1399 1404 1409 1415 1421 1428
1474 1468 1463 1457 1451 1446 1442 1437 1432 1429 1425 1421 1417 1413 1409 1403 1398 1390 1383 1377 1372 1368 1365 1363 1362 1362 1362 1363 1363 1365 1367 1372 1375 1378 1382 1386 1391 1397 1402 1407 1412 1418 1424
1477 1471 1467 1461 1455 1450 1446 1441 1435 1431 1427 1423 1419 1415 1412 1406 1401 1393 1386 1380 1375 1371 1367 1365 1362 1361 1360 1360 1361 1363 1365 1369 1372 1374 1378 1383 1389 1395 1400 1405 1411 1417 1423
1480 1475 1470 1465 1460 1454 1450 1445 1439 1434 1430 1426 1422 1417 1414 1409 1404 1397 1389 1384 1378 1374 1369 1365 1362 1360 1358 1358 1358 1359 1361 1365 1368 1371 1375 1381 1386 1391 1398 1405 1410 1417 1423